timestamp,surface_pressure_avg,surface_temp_avg,battery_voltage,lat,long
2024-04-03 00:09:00+00:00,242.6981,2.18,11.77,47.84626,-54.09684
2024-04-03 00:19:00+00:00,241.1481,2.2,11.77,47.84626,-54.09684
2024-04-03 00:29:00+00:00,243.6997,2.16,11.77,47.84626,-54.09684
2024-04-03 00:39:00+00:00,246.1431,2.24,11.77,47.84626,-54.09684
2024-04-03 00:49:00+00:00,244.6565,2.2,11.77,47.84626,-54.09684
2024-04-03 00:59:00+00:00,244.1064,2.2,11.77,47.84626,-54.09684
2024-04-03 01:09:00+00:00,248.2631,2.2,11.77,47.84626,-54.09684
2024-04-03 01:19:01+00:00,249.8481,1.9,11.77,47.84626,-54.09684
2024-04-03 01:29:01+00:00,249.3898,1.91,11.77,47.84626,-54.09684
2024-04-03 01:39:01+00:00,250.463,1.9,11.77,47.84626,-54.09684
2024-04-03 01:49:01+00:00,253.2447,1.7,11.77,47.84626,-54.09684
2024-04-03 01:59:01+00:00,254.6347,1.8,11.77,47.84626,-54.09684
2024-04-03 02:09:01+00:00,257.6864,1.6,11.77,47.84626,-54.09684
2024-04-03 02:19:00+00:00,265.3164,1.53,11.77,47.84626,-54.09684
2024-04-03 02:29:00+00:00,271.2297,1.96,11.77,47.84626,-54.09684
2024-04-03 02:39:00+00:00,272.6614,2.2,11.77,47.84626,-54.09684
2024-04-03 02:49:00+00:00,274.9848,2.2,11.77,47.84626,-54.09684
2024-04-03 02:59:00+00:00,282.0131,1.4,11.77,47.84626,-54.09684
2024-04-03 03:09:00+00:00,288.813,1.38,11.77,47.84626,-54.09684
2024-04-03 03:19:00+00:00,292.1198,1.37,11.77,47.84626,-54.09684
2024-04-03 03:29:00+00:00,295.9247,1.3,11.77,47.84626,-54.09684
2024-04-03 03:39:00+00:00,300.6547,1.3,11.77,47.84626,-54.09684
2024-04-03 03:49:00+00:00,304.4147,1.28,11.77,47.84626,-54.09684
2024-04-03 03:59:00+00:00,308.9197,1.2,11.77,47.84626,-54.09684
2024-04-03 04:09:00+00:00,315.2647,1.19,11.77,47.84626,-54.09684
2024-04-03 04:19:00+00:00,317.0814,1.18,11.77,47.84626,-54.09684
2024-04-03 04:29:00+00:00,315.983,1.12,11.77,47.84626,-54.09684
2024-04-03 04:39:00+00:00,320.2313,1.1,11.77,47.84626,-54.09684
2024-04-03 04:49:00+00:00,325.9612,1.12,11.77,47.84626,-54.09684
2024-04-03 04:59:00+00:00,325.8563,1.1,11.77,47.84626,-54.09684
2024-04-03 05:09:00+00:00,327.243,1.12,11.77,47.84626,-54.09684
2024-04-03 05:19:00+00:00,332.0397,1.2,11.77,47.84626,-54.09684
2024-04-03 05:29:00+00:00,335.5179,1.2,11.77,47.84626,-54.09684
2024-04-03 05:39:00+00:00,334.0978,1.2,11.77,47.84626,-54.09684
2024-04-03 05:49:00+00:00,331.7679,1.2,11.77,47.84626,-54.09684
2024-04-03 05:59:00+00:00,334.8830000000001,1.2,11.77,47.84626,-54.09684
2024-04-03 06:09:00+00:00,339.2697,1.29,11.77,47.84626,-54.09684
2024-04-03 06:19:00+00:00,339.8179,1.51,11.77,47.84626,-54.09684
2024-04-03 06:29:00+00:00,337.4213,1.6,11.77,47.84626,-54.09684
2024-04-03 06:39:00+00:00,340.4713,1.69,11.77,47.84626,-54.09684
2024-04-03 06:49:00+00:00,344.8863,1.7,11.77,47.84626,-54.09684
2024-04-03 06:59:00+00:00,344.2246,1.7,11.77,47.84626,-54.09684
2024-04-03 07:09:00+00:00,342.728,1.75,11.77,47.84626,-54.09684
2024-04-03 07:19:00+00:00,342.9379,1.7,11.77,47.84626,-54.09684
2024-04-03 07:29:00+00:00,340.6330000000001,1.7,11.77,47.84626,-54.09684
2024-04-03 07:39:00+00:00,334.6796,1.7,11.77,47.84626,-54.09684
2024-04-03 07:49:00+00:00,332.2580000000001,1.7,11.77,47.84626,-54.09684
2024-04-03 07:59:00+00:00,331.5231,1.6,11.77,47.84626,-54.09684
2024-04-03 08:09:00+00:00,327.583,1.6,11.77,47.84626,-54.09684
2024-04-03 08:19:00+00:00,320.8663,1.6,11.77,47.84626,-54.09684
2024-04-03 08:29:00+00:00,315.7463,1.6,11.77,47.84626,-54.09684
2024-04-03 08:39:00+00:00,313.483,1.53,11.77,47.84626,-54.09684
2024-04-03 08:49:00+00:00,309.7197,1.51,11.77,47.84626,-54.09684
2024-04-03 08:59:00+00:00,302.9263,1.58,11.77,47.84626,-54.09684
2024-04-03 09:09:00+00:00,296.1196,1.6,11.77,47.84626,-54.09684
2024-04-03 09:19:00+00:00,290.6746,1.6,11.77,47.84626,-54.09684
2024-04-03 09:29:00+00:00,285.8197,1.5,11.77,47.84626,-54.09684
2024-04-03 09:39:00+00:00,278.1514,1.2,11.77,47.84626,-54.09684
2024-04-03 09:49:00+00:00,273.7131,1.42,11.77,47.84626,-54.09684
2024-04-03 09:59:00+00:00,271.1381,1.44,11.77,47.84626,-54.09684
2024-04-03 10:09:00+00:00,269.473,1.43,11.77,47.84626,-54.09684
2024-04-03 10:19:00+00:00,266.3365,1.4,11.77,47.84626,-54.09684
2024-04-03 10:29:00+00:00,262.9031,1.2,11.77,47.84626,-54.09684
2024-04-03 10:39:00+00:00,259.9814,1.1,11.77,47.84626,-54.09684
2024-04-03 10:49:00+00:00,256.6164,1.0,11.77,47.84626,-54.09684
2024-04-03 10:59:00+00:00,254.7614,0.94,11.77,47.84626,-54.09684
2024-04-03 11:09:00+00:00,252.28799999999998,0.97,11.77,47.84626,-54.09684
2024-04-03 11:19:00+00:00,249.288,1.0,11.77,47.84626,-54.09684
2024-04-03 11:29:00+00:00,246.6115,1.0,11.77,47.84626,-54.09684
2024-04-03 11:39:00+00:00,246.2814,0.98,11.77,47.84626,-54.09684
2024-04-03 11:49:00+00:00,247.5064,0.93,11.77,47.84626,-54.09684
2024-04-03 11:59:00+00:00,246.5865,0.9,11.77,47.84626,-54.09684
2024-04-03 12:09:00+00:00,245.2948,0.97,11.77,47.84626,-54.09684
2024-04-03 12:19:01+00:00,245.8281,1.08,11.77,47.84626,-54.09684
2024-04-03 12:29:01+00:00,245.4998,1.1,11.77,47.84626,-54.09684
2024-04-03 12:39:01+00:00,240.7781,1.18,11.77,47.84626,-54.09684
2024-04-03 12:49:01+00:00,238.8481,1.1,11.77,47.84626,-54.09684
2024-04-03 12:59:01+00:00,239.6598,1.0,11.77,47.84626,-54.09684
2024-04-03 13:09:01+00:00,238.7997,1.02,11.77,47.84626,-54.09684
2024-04-03 13:19:01+00:00,236.9847,1.0,12.17,47.84626,-54.09684
2024-04-03 13:29:01+00:00,236.8315,0.94,12.17,47.84626,-54.09684
2024-04-03 13:39:01+00:00,235.2381,1.02,12.17,47.84626,-54.09684
2024-04-03 13:49:01+00:00,233.5648,1.14,12.17,47.84626,-54.09684
2024-04-03 13:59:01+00:00,234.7931,1.16,12.17,47.84626,-54.09684
2024-04-03 14:09:01+00:00,236.2848,1.1,12.17,47.84626,-54.09684
2024-04-03 14:19:00+00:00,239.2831,1.08,12.09,47.84626,-54.09684
2024-04-03 14:29:00+00:00,237.9948,1.06,12.09,47.84626,-54.09684
2024-04-03 14:39:00+00:00,239.1281,1.04,12.09,47.84626,-54.09684
2024-04-03 14:49:00+00:00,242.5247,1.09,12.09,47.84626,-54.09684
2024-04-03 14:59:00+00:00,246.4147,1.2,12.09,47.84626,-54.09684
2024-04-03 15:09:00+00:00,249.7248,1.1,12.09,47.84626,-54.09684
2024-04-03 15:19:00+00:00,255.0014,1.08,11.93,47.84626,-54.09684
2024-04-03 15:29:00+00:00,257.5614,1.09,11.93,47.84626,-54.09684
2024-04-03 15:39:00+00:00,259.5248,1.0,11.93,47.84626,-54.09684
2024-04-03 15:49:00+00:00,261.8165,1.0,11.93,47.84626,-54.09684
2024-04-03 15:59:00+00:00,267.1097,1.0,11.93,47.84626,-54.09684
2024-04-03 16:09:00+00:00,269.1964,1.19,11.93,47.84626,-54.09684
2024-04-03 16:19:00+00:00,271.0681,1.2,11.93,47.84626,-54.09684
2024-04-03 16:29:00+00:00,272.6447,1.19,11.93,47.84626,-54.09684
2024-04-03 16:39:00+00:00,276.3248,1.2,11.93,47.84626,-54.09684
2024-04-03 16:49:00+00:00,279.7547,1.26,11.93,47.84626,-54.09684
2024-04-03 16:59:00+00:00,280.918,1.2,11.93,47.84626,-54.09684
2024-04-03 17:09:00+00:00,282.2097,1.2,11.93,47.84626,-54.09684
2024-04-03 17:19:00+00:00,287.0081,1.18,11.93,47.84626,-54.09684
2024-04-03 17:29:00+00:00,288.6397,1.29,11.93,47.84626,-54.09684
2024-04-03 17:39:00+00:00,287.5231,1.19,11.93,47.84626,-54.09684
2024-04-03 17:49:00+00:00,290.9397,1.1,11.93,47.84626,-54.09684
2024-04-03 17:59:00+00:00,293.5314,1.06,11.93,47.84626,-54.09684
2024-04-03 18:09:00+00:00,291.8347,1.1,11.93,47.84626,-54.09684
2024-04-03 18:19:00+00:00,292.8181,1.1,11.93,47.84626,-54.09684
2024-04-03 18:29:00+00:00,298.6313,1.1,11.93,47.84626,-54.09684
2024-04-03 18:39:00+00:00,302.8414,1.1,11.93,47.84626,-54.09684
2024-04-03 18:49:00+00:00,302.033,1.1,11.93,47.84626,-54.09684
2024-04-03 18:59:00+00:00,300.3214,1.09,11.93,47.84626,-54.09684
2024-04-03 19:09:00+00:00,301.683,1.06,11.93,47.84626,-54.09684
2024-04-03 19:19:00+00:00,302.183,1.07,11.86,47.84626,-54.09684
2024-04-03 19:29:00+00:00,301.0696,1.08,11.86,47.84626,-54.09684
2024-04-03 19:39:00+00:00,299.6014,1.09,11.86,47.84626,-54.09684
2024-04-03 19:49:00+00:00,298.5114,1.15,11.86,47.84626,-54.09684
2024-04-03 19:59:00+00:00,295.9697,1.3,11.86,47.84626,-54.09684
2024-04-03 20:09:00+00:00,295.0431,1.3,11.86,47.84626,-54.09684
2024-04-03 20:19:00+00:00,294.5447,1.2,11.93,47.84626,-54.09684
2024-04-03 20:29:00+00:00,291.2997,1.18,11.93,47.84626,-54.09684
2024-04-03 20:39:00+00:00,285.3364,1.1,11.93,47.84626,-54.09684
2024-04-03 20:49:00+00:00,279.8663,1.1,11.93,47.84626,-54.09684
2024-04-03 20:59:00+00:00,278.2513,1.09,11.93,47.84626,-54.09684
2024-04-03 21:09:00+00:00,277.1414,1.08,11.93,47.84626,-54.09684
2024-04-03 21:19:00+00:00,273.4413,1.36,11.93,47.84626,-54.09684
2024-04-03 21:29:00+00:00,268.5914,1.4,11.93,47.84626,-54.09684
2024-04-03 21:39:00+00:00,269.0031,1.38,11.93,47.84626,-54.09684
2024-04-03 21:49:00+00:00,268.3147,1.38,11.93,47.84626,-54.09684
2024-04-03 21:59:00+00:00,263.9131,1.38,11.93,47.84626,-54.09684
2024-04-03 22:09:00+00:00,259.273,1.27,11.93,47.84626,-54.09684
2024-04-03 22:19:00+00:00,255.5214,1.2,11.86,47.84626,-54.09684
2024-04-03 22:29:00+00:00,249.0864,1.3,11.86,47.84626,-54.09684
2024-04-03 22:39:00+00:00,245.0448,1.3,11.86,47.84626,-54.09684
2024-04-03 22:49:00+00:00,245.2314,1.37,11.86,47.84626,-54.09684
2024-04-03 22:59:00+00:00,242.6764,1.39,11.86,47.84626,-54.09684
2024-04-03 23:09:00+00:00,237.9464,1.4,11.86,47.84626,-54.09684
2024-04-03 23:19:00+00:00,236.9381,1.4,11.86,47.84626,-54.09684
2024-04-03 23:29:00+00:00,238.0014,1.39,11.86,47.84626,-54.09684
2024-04-03 23:39:00+00:00,239.5648,1.38,11.86,47.84626,-54.09684
2024-04-03 23:49:00+00:00,239.6864,1.39,11.86,47.84626,-54.09684
2024-04-03 23:59:00+00:00,238.6964,1.39,11.86,47.84626,-54.09684
